Showing default

OPS 6582 (TRANSIT 5E-5), 959

Orbit data source: Space-Track

OPS 6582 (TRANSIT 5E-5), 959 is a payload satellite owned by USN BuWeps (US) in LEO that was launched on Sun, 13 Dec 1964 UTC via a THOR ABLESTAR launch vehicle from the Air Force Western Test Range (AFWTR). Payload-class satellites include a variety of spacecraft equipped with specific instruments for various scientific and technological missions. These include communications satellites like Starlink; space stations such as the ISS; scientific satellites like the Hubble; Earth observation satellites from companies like Planet Labs, Umbra, and HawkEye 360; GPS; miniature CubeSats for education and research; and military/defense satellites.

Loading next visibility...
Identifier
959, 1964-083C
Orbit
LEO
Country
Flag of USUS
Related business
Manufacturer
APL
Mission
Spacecraft
Bus & Motor
TRANSIT 5, Unknown motor
Mass
77 kg wet, 77 kg dry
Launch date (UTC)
1964-12-13 (61 years ago)
Launch vehicle
THOR ABLESTAR
Launch site
Air Force Western Test Range (AFWTR)
Object type
Payload
Rocket body
Debris
Shape & HBR
Unknown
Radar Cross Section
Large (>1 m²)

Expand to show TLE details & history
Last TLE update: 9 hours ago

TLE from 9 hours ago
0 OPS 6582 (TRANSIT 5E-5)
1 00959U 64083C   25291.78786159  .00000237  00000-0  29284-3 0  9994
2 00959  90.0081 187.0971 0040573 297.9548 129.7559 13.62398510 17340
Epoch: 2025-10-18T18:54Z
TLE epoch observation values (Epoch: 2025-10-18T18:54:31.241Z)
Latitude
68.14199°
Longitude
-124.06702°
Altitude
1,058.16 km
Speed
7.319 km/s
True Right ascension
12h 28m 18s
True Declination
68° 01' 40"
Sunlit
Object was in daylight at epoch
Visualization orbit readout
Latitude
Unknown
Longitude
Unknown
Altitude
Unknown
Speed
Unknown
Apparent Right ascension
Unknown
Apparent Declination
Unknown
Sunlit
N/A
Visualization observer readout
Local Sidereal Time
23:07:12
Azimuth
Unknown
Elevation
Unknown
Doppler factor
Unknown
Orbital elements
Apogee altitude
1,054.053 km
Perigee altitude
993.987 km
Semi-major axis
7,402.157 km
Eccentricity
0.00406
Inclination
90.0081°
RAAN
187.0971°
Arg. of periapsis
297.9548°
True anomaly
130.11217°
Mean anomaly
129.7559°
Eccentric anomaly
129.93415°
Mean motion
3.40805 °/min
Orbital period
105.63 mins
BSTAR
0.00029284
Loading maneuver chart data...
Computing Atmospheric mass density...

Documentation

Showing up to 5 results
|